Moab, UT

11:41 AM MDT on October 14, 2019 (GMT -0600)
Canyonlands

Weather History for KCNY - August, 2019

Change the Weather History Date:

Sunday, August 25, 2019

  Actual Average Record
Temperature  
Mean Temperature 81 °F 75 °F  
Max Temperature 100 °F 90 °F 105 °F (1985)
Min Temperature 62 °F 60 °F 47 °F (1989)
Degree Days  
Heating Degree Days 0 0  
Month to date heating degree days 0 0  
Since 1 June heating degree days 23 17  
Since 1 July heating degree days 0 0  
Cooling Degree Days 16 10  
Month to date cooling degree days 394 320  
Year to date cooling degree days 1167 1113  
Since 1 June cooling degree days 1152 1049  
Growing Degree Days 32 (Base 50)    
Moisture  
Dew Point 31 °F    
Average Humidity 19    
Maximum Humidity 28    
Minimum Humidity 9    
Precipitation  
Precipitation 0.00 in 0.03 in 0.70 in (1961)
Month to date precipitation 0.02 0.66  
Year to date precipitation 6.17 5.20  
Sea Level Pressure  
Sea Level Pressure 29.77 in    
Wind  
Wind Speed 7 mph (West)    
Max Wind Speed 21 mph    
Max Gust Speed 28 mph    
Visibility 10 miles    
Events      
T = Trace of Precipitation, MM = Missing Value Source: NWS Daily Summary

Daily Weather History Graph

Daily Weather History Graph

Search for Another Location

Airport or City:

Astronomy

Aug. 25, 2019 Rise Set
Actual Time 6:41 AM MDT 7:59 PM MDT
Civil Twilight 6:14 AM MDT 8:27 PM MDT
Nautical Twilight 5:40 AM MDT 9:00 PM MDT
Astronomical Twilight 5:06 AM MDT 9:35 PM MDT
Moon 1:21 AM MDT (8/25) 4:22 PM MDT (8/25)
Length of Visible Light 14h 13m
Length of Day
13h 18m
Waning Crescent, 28% of the Moon is Illuminated
Aug 25
Waning Crescent
Aug 30
New
Sep 5
First Quarter
Sep 13
Full
Sep 21
Last Quarter

Hourly Weather History & Observations

Time (MDT) Temp. Dew Point Humidity Pressure Visibility Wind Dir Wind Speed Gust Speed Precip Events Conditions
12:53 AM 77.0 °F 30.0 °F 18% 29.77 in 10.0 mi South 3.5 mph - N/A   Clear
1:53 AM 72.0 °F 28.0 °F 20% 29.77 in 10.0 mi Calm Calm - N/A   Clear
2:53 AM 66.9 °F 25.0 °F 21% 29.78 in 10.0 mi Calm Calm - N/A   Clear
3:53 AM 68.0 °F 27.0 °F 21% 29.79 in 10.0 mi Calm Calm - N/A   Clear
4:53 AM 69.1 °F 30.9 °F 24% 29.80 in 10.0 mi WSW 3.5 mph - N/A   Clear
5:53 AM 64.9 °F 28.9 °F 26% 29.81 in 10.0 mi NE 3.5 mph - N/A   Clear
6:53 AM 64.0 °F 30.0 °F 28% 29.83 in 10.0 mi West 5.8 mph - N/A   Clear
7:53 AM 68.0 °F 28.0 °F 22% 29.85 in 10.0 mi Calm Calm - N/A   Clear
8:53 AM 80.1 °F 30.9 °F 17% 29.86 in 10.0 mi ENE 3.5 mph - N/A   Clear
9:53 AM 87.1 °F 32.0 °F 14% 29.84 in 10.0 mi WNW 5.8 mph - N/A   Clear
10:53 AM 90.0 °F 32.0 °F 13% 29.83 in 10.0 mi West 10.4 mph - N/A   Clear
11:53 AM 91.9 °F 32.0 °F 12% 29.82 in 10.0 mi WSW 9.2 mph 17.3 mph N/A   Clear
12:53 PM 93.9 °F 32.0 °F 11% 29.81 in 10.0 mi SW 8.1 mph - N/A   Clear
1:53 PM 96.1 °F 32.0 °F 10% 29.78 in 10.0 mi WSW 11.5 mph 23.0 mph N/A   Clear
2:53 PM 98.1 °F 30.9 °F 9% 29.75 in 10.0 mi West 16.1 mph 26.5 mph N/A   Clear
3:53 PM 98.1 °F 30.9 °F 9% 29.73 in 10.0 mi West 9.2 mph 20.7 mph N/A   Clear
4:53 PM 99.0 °F 30.9 °F 9% 29.70 in 10.0 mi WNW 13.8 mph 23.0 mph N/A   Clear
5:53 PM 99.0 °F 32.0 °F 10% 29.69 in 10.0 mi WNW 13.8 mph 23.0 mph N/A   Clear
6:53 PM 98.1 °F 33.1 °F 10% 29.69 in 10.0 mi WNW 13.8 mph - N/A   Clear
7:53 PM 93.0 °F 33.1 °F 12% 29.69 in 10.0 mi WNW 12.7 mph - N/A   Clear
8:53 PM 89.1 °F 30.9 °F 12% 29.69 in 10.0 mi West 10.4 mph - N/A   Clear
9:53 PM 84.0 °F 32.0 °F 15% 29.71 in 10.0 mi West 8.1 mph - N/A   Clear
10:53 PM 82.9 °F 33.1 °F 17% 29.71 in 10.0 mi West 8.1 mph - N/A   Clear
11:53 PM 79.0 °F 32.0 °F 18% 29.71 in 10.0 mi SSE 3.5 mph - N/A   Clear